Regional Weather Roundup
Issued by NWS

Home | Current Version | Previous Version | Text Only | Print | Product List | Glossary On
Versions: 1 2 3 4 5 6 7 8 9 10 11 12 13 14 15 16 17 18 19 20 21 22 23 24 25 26 27 28 29 30 31 32 33 34 35 36 37 38 39 40 41 42 43 44 45 46 47 48 49 50
000
ASUS43 KOAX 062310
RWRNE

WEATHER ROUNDUP FOR NEBRASKA
NATIONAL WEATHER SERVICE OMAHA NE
500 PM CST TUE DEC 06 2016

NOTES: SATELLITE DATA IS BEING USED TO AUGMENT CLOUD COVER ABOVE
       12000 FEET.
       "FAIR" INDICATES FEW OR NO CLOUDS BELOW 12,000 FEET WITH NO
       SIGNIFICANT WEATHER AND/OR OBSTRUCTIONS TO VISIBILITY.

  * THESE STATIONS DO NOT REPORT WEATHER SUCH AS RAIN...SNOW OR FOG.

NEZ001>004-019>022-054>056-070000-
NEBRASKA PANHANDLE

CITY           SKY/WX    TMP DP  RH WIND       PRES   REMARKS
SCOTTSBLUFF    CLOUDY    23   1  38 N8        29.94R WCI  14
ALLIANCE       CLOUDY    20   3  48 N13       29.93R WCI   7
CHADRON        CLEAR     17   2  51 W14       29.99S WCI   3
KIMBALL        CLOUDY    24   1  37 NE5       29.89R WCI  18
SIDNEY         CLOUDY    25  -3  29 N5        29.92S WCI  19
$$

NEZ057>060-069>072-079>082-070000-
SOUTHWEST NEBRASKA

CITY           SKY/WX    TMP DP  RH WIND       PRES   REMARKS
NORTH PLATTE   CLEAR     28   4  35 NW6       29.99R WCI  22
IMPERIAL       MOCLDY    28   1  31 CALM      29.97F
LEXINGTON      CLEAR     31   6  34 W7        30.01R WCI  24
MCCOOK         CLEAR     31   2  29 W3        30.01S
OGALLALA       CLEAR     26   2  37 CALM      29.97S
$$

NEZ005>010-023>029-035>040-094-070000-
NORTH CENTRAL NEBRASKA

CITY           SKY/WX    TMP DP  RH WIND       PRES   REMARKS
VALENTINE      CLEAR     19   4  51 NW15      30.01R WCI   5
AINSWORTH      CLEAR     21   6  51 NW15G23   29.99R WCI   8
BROKEN BOW     CLEAR     28   6  39 N9        30.00R WCI  19
O`NEILL        CLEAR     23   7  49 NW14G20   30.00S WCI  11
ORD            CLEAR     27   2  34 NW12      30.01R WCI  17
THEDFORD       CLEAR     26   4  38 N6        29.99R WCI  20
$$

NEZ041-046>049-061>064-073>077-083>087-070000-
SOUTH CENTRAL NEBRASKA

CITY           SKY/WX    TMP DP  RH WIND       PRES   REMARKS
GRAND ISLAND   CLEAR     29   7  39 NW8       30.04R WCI  21
AURORA         CLEAR     30   8  40 W8        30.05R WCI  22
HASTINGS       CLEAR     30   9  41 N7        30.04R WCI  23
HEBRON         CLEAR     32  10  40 NW6       30.07R WCI  26
HOLDREGE       CLEAR     32   4  30 NW5       30.02R WCI  27
KEARNEY *      CLEAR     28   7  40 N8        30.02R WCI  20
YORK           CLEAR     28   9  43 NW9       30.05R WCI  20
$$

NEZ011>018-030>034-042>045-070000-
NORTHEAST NEBRASKA

CITY           SKY/WX    TMP DP  RH WIND       PRES   REMARKS
NORFOLK        CLEAR     26   5  40 NW14G25   30.00R WCI  14
ALBION         CLEAR     28   2  34 NW14      30.02R WCI  16
BLAIR          CLEAR     31  11  43 W14G22    30.00R WCI  21
FREMONT        CLEAR     29  12  47 W10       30.03R WCI  20
TEKAMAH        CLEAR     29  14  53 W12       30.02R WCI  19
WAYNE          CLEAR     26   9  48 W17G26    30.00R WCI  13
$$

NEZ050>053-065>068-078-088>093-070000-
SOUTHEAST NEBRASKA

CITY           SKY/WX    TMP DP  RH WIND       PRES   REMARKS
LINCOLN        CLEAR     33   8  35 W9        30.07R WCI  25
OMAHA EPPLEY   CLEAR     32  10  40 W14       30.03R WCI  22
BEATRICE       CLEAR     31  13  48 NW7       30.06R WCI  24
FALLS CITY     CLEAR     31  15  52 W8        30.06R WCI  23
NEBRASKA CITY  CLEAR     31   9  39 W8        30.05R WCI  23
PLATTSMOUTH    CLEAR     31   8  37 W9        30.04R WCI  22
$$

NEZ044-045-051>053-067-070000-
OMAHA AREA

CITY           SKY/WX    TMP DP  RH WIND       PRES   REMARKS
OMAHA EPPLEY   CLEAR     32  10  40 W14       30.03R WCI  22
BLAIR          CLEAR     31  11  43 W14G22    30.00R WCI  21
FREMONT        CLEAR     29  12  47 W10       30.03R WCI  20
MILLARD        CLEAR     32  10  40 W12G17    30.03R WCI  23
PLATTSMOUTH    CLEAR     31   8  37 W9        30.04R WCI  22
WAHOO          FAIR      31   8  38 NW12      30.04R WCI  22
$$



USA.gov is the U.S. government's official web portal to all federal, state and local government web resources and services.